Terug naar catalogus

FENGYUN 1C DEB *

ActiefSSO
NORAD 49389·DEBRIS·🇨🇳 China

Gelanceerd May 10, 1999 vanaf Taiyuan Satellite Launch Center

Loading…

Volgende Passages (komende 24 uur)

TLE

VerouderendSource: Space-Track

Epoch: Sep 6, 2026, 06:55 UTC

1 49389U 99025FCJ 26249.28824850  .00002158  00000-0  13472-2 0  9993
2 49389  98.7228  72.5643 0134129 163.6467 196.9090 14.01403253265944

Volg FENGYUN 1C DEB * in realtime met AllMySat

Download on the App Store